Location: Newark
(50.4348°N, 30.5552°E)
Time: 06:20:07
(UTC+00:00)

Transit 2A Rocket - Pass Details

Date: 04 February 2020
Orbit: 591 x 912 km, 66.7° (Epoch: 27 February)

Event Time Altitude Azimuth Distance (km) Brightness Sun altitude
Exits shadow 04:01:44 12° 325° (NW) 1,854 6.6 -14.1°
Maximum altitude 04:02:58 13° 343° (NNW) 1,800 6.7 -13.9°
Drops below altitude 10° 04:05:10 10° 12° (NNE) 2,041 7.3 -13.6°
Sets 04:08:46 0° 40° (NE) 3,021 8.5 -13.0°
